Weather History for KEXX - January, 2013

Change the Weather History Date:

Saturday, January 12, 2013

  Actual Average (KINT) Record (KINT)
Temperature  
Mean Temperature 56 °F -  
Max Temperature 68 °F 47 °F 68 °F (2005)
Min Temperature 44 °F 30 °F -1 °F (1977)
Degree Days  
Heating Degree Days 9    
Growing Degree Days 6 (Base 50)    
Moisture  
Dew Point 53 °F    
Average Humidity 97    
Maximum Humidity 100    
Minimum Humidity 77    
Precipitation  
Precipitation 0.01 in - - ()
Sea Level Pressure  
Sea Level Pressure 30.13 in    
Wind  
Wind Speed 0 mph (SW)    
Max Wind Speed 6 mph    
Max Gust Speed -    
Visibility 3 miles    
Events Fog , Rain    
Averages and records for this station are not official NWS values.
T = Trace of Precipitation, MM = Missing Value Source: NWS Daily Summary

Daily Weather History Graph

Daily Weather History Graph

Search for Another Location

Airport or City:

Trip Planner

Search our weather history database for the weather conditions in past years. The results will help you decide how hot, cold, wet, or windy it might be!

Date:

Astronomy

Jan. 12, 2013 Rise Set
Actual Time 7:31 AM EST 5:28 PM EST
Civil Twilight 7:03 AM EST 5:56 PM EST
Nautical Twilight 6:31 AM EST 6:27 PM EST
Astronomical Twilight 6:00 AM EST 6:58 PM EST
Moon 7:52 AM EST (1/12) 6:51 PM EST (1/12)
Length of Visible Light 10h 53m
Length of Day
9h 57m
New Moon, 1% of the Moon is Illuminated
Jan 12
New Moon
Jan 18
First Quarter
Jan 26
Full
Feb 3
Last Quarter
Feb 10
New

Hourly Weather History & Observations

Time (EST) Temp. Dew Point Humidity Pressure Visibility Wind Dir Wind Speed Gust Speed Precip Events Conditions
12:35 AM 44.1 °F 44.1 °F 100% 30.16 in 2.5 mi Calm Calm - N/A   Overcast
12:55 AM 44.6 °F 44.6 °F 100% 30.16 in 2.0 mi Calm Calm - N/A   Overcast
1:15 AM 44.6 °F 44.6 °F 100% 30.16 in 2.0 mi Calm Calm - N/A   Overcast
1:35 AM 44.6 °F 44.6 °F 100% 30.15 in 1.8 mi Calm Calm - N/A   Overcast
1:55 AM 44.6 °F 44.6 °F 100% 30.15 in 0.8 mi Calm Calm - N/A   Overcast
2:15 AM 44.6 °F 44.6 °F 100% 30.15 in 0.5 mi Calm Calm - N/A Fog Fog
2:35 AM 44.6 °F 44.6 °F 100% 30.15 in 0.5 mi Calm Calm - N/A Fog Fog
2:55 AM 44.8 °F 44.8 °F 100% 30.15 in 0.2 mi Calm Calm - N/A Fog Fog
3:15 AM 44.8 °F 44.8 °F 100% 30.15 in 0.2 mi Calm Calm - N/A Fog Fog
3:35 AM 44.8 °F 44.8 °F 100% 30.15 in 0.2 mi Calm Calm - N/A Fog Fog
3:55 AM 45.0 °F 45.0 °F 100% 30.14 in 0.2 mi Calm Calm - N/A Fog Fog
4:15 AM 45.1 °F 45.1 °F 100% 30.13 in 0.2 mi Calm Calm - N/A Fog Fog
4:35 AM 45.0 °F 45.0 °F 100% 30.12 in 0.2 mi Calm Calm - N/A Fog Fog
4:55 AM 45.1 °F 45.1 °F 100% 30.13 in 0.2 mi Calm Calm - N/A Fog Fog
5:15 AM 45.5 °F 45.5 °F 100% 30.12 in 0.2 mi Calm Calm - N/A Fog Fog
5:35 AM 45.7 °F 45.7 °F 100% 30.12 in 0.2 mi Calm Calm - N/A Fog Fog
5:55 AM 45.9 °F 45.9 °F 100% 30.12 in 0.2 mi Calm Calm - N/A Fog Fog
6:15 AM 46.0 °F 46.0 °F 100% 30.13 in 0.2 mi Calm Calm - N/A Fog Fog
6:35 AM 46.4 °F 46.4 °F 100% 30.13 in 0.2 mi Calm Calm - N/A Fog Fog
6:55 AM 46.0 °F 46.0 °F 100% 30.14 in 0.2 mi Calm Calm - N/A Fog Fog
7:15 AM 46.4 °F 46.4 °F 100% 30.14 in 0.2 mi Calm Calm - N/A Fog Fog
7:35 AM 46.4 °F 46.4 °F 100% 30.15 in 0.2 mi Calm Calm - N/A Fog Fog
7:55 AM 46.6 °F 46.6 °F 100% 30.15 in 0.2 mi Calm Calm - N/A Fog Fog
8:15 AM 47.1 °F 47.1 °F 100% 30.16 in 0.2 mi Calm Calm - N/A Fog Fog
8:35 AM 47.5 °F 47.5 °F 100% 30.16 in 0.2 mi Calm Calm - N/A Fog Fog
8:55 AM 48.4 °F 48.4 °F 100% 30.17 in 0.2 mi Calm Calm - N/A Fog Fog
9:15 AM 49.1 °F 49.1 °F 100% 30.17 in 0.2 mi Calm Calm - N/A Fog Fog
9:35 AM 50.0 °F 50.0 °F 100% 30.17 in 0.2 mi Calm Calm - N/A Fog Fog
9:55 AM 50.9 °F 50.9 °F 100% 30.17 in 0.2 mi Calm Calm - N/A Fog Fog
10:15 AM 52.0 °F 52.0 °F 100% 30.17 in 0.2 mi Calm Calm - N/A Fog Fog
10:35 AM 53.1 °F 53.1 °F 100% 30.16 in 0.2 mi Calm Calm - N/A Fog Fog
10:55 AM 53.8 °F 53.8 °F 100% 30.16 in 0.8 mi Calm Calm - N/A   Overcast
11:15 AM 54.7 °F 54.7 °F 100% 30.16 in 2.5 mi Calm Calm - N/A   Overcast
11:35 AM 55.4 °F 55.4 °F 100% 30.15 in 4.0 mi Calm Calm - N/A   Overcast
11:55 AM 56.1 °F 56.1 °F 100% 30.15 in 5.0 mi Calm Calm - N/A   Overcast
12:15 PM 57.0 °F 57.0 °F 100% 30.14 in 5.0 mi Calm Calm - N/A   Overcast
12:55 PM 59.0 °F 59.0 °F 100% 30.13 in 7.0 mi Calm Calm - N/A   Overcast
1:15 PM 62.6 °F 62.1 °F 98% 30.12 in 10.0 mi SSW 5.8 mph - N/A   Mostly Cloudy
1:35 PM 63.5 °F 62.8 °F 97% 30.13 in 10.0 mi Calm Calm - N/A   Scattered Clouds
1:55 PM 64.9 °F 61.0 °F 87% 30.12 in 10.0 mi WSW 3.5 mph - N/A   Scattered Clouds
2:15 PM 65.3 °F 61.0 °F 86% 30.12 in 10.0 mi SW 3.5 mph - N/A Rain Light Rain
2:35 PM 65.3 °F 61.0 °F 86% 30.12 in 10.0 mi WSW 3.5 mph - N/A   Clear
2:55 PM 66.0 °F 60.3 °F 82% 30.12 in 10.0 mi Calm Calm - N/A   Clear
3:15 PM 66.2 °F 60.4 °F 82% 30.12 in 10.0 mi Calm Calm - N/A   Clear
3:35 PM 67.3 °F 61.0 °F 80% 30.12 in 10.0 mi Calm Calm - N/A   Clear
3:55 PM 68.4 °F 60.8 °F 77% 30.12 in 10.0 mi Calm Calm - N/A   Clear
4:15 PM 68.4 °F 60.8 °F 77% 30.12 in 10.0 mi Calm Calm - N/A   Clear
4:35 PM 67.5 °F 60.8 °F 79% 30.11 in 10.0 mi Calm Calm - N/A   Clear
4:55 PM 67.6 °F 61.0 °F 79% 30.11 in 10.0 mi Calm Calm - N/A Rain Light Rain
5:15 PM 66.0 °F 61.3 °F 85% 30.11 in 10.0 mi Calm Calm - N/A   Clear
5:35 PM 63.5 °F 62.2 °F 96% 30.11 in 10.0 mi Calm Calm - N/A   Clear
5:55 PM 62.2 °F 62.2 °F 100% 30.11 in 10.0 mi Calm Calm - N/A   Clear
6:15 PM 61.2 °F 61.2 °F 100% 30.11 in 10.0 mi Calm Calm - N/A   Clear
6:35 PM 60.4 °F 60.4 °F 100% 30.11 in 10.0 mi Calm Calm - N/A   Clear
6:55 PM 59.5 °F 59.5 °F 100% 30.11 in 7.0 mi Calm Calm - N/A   Clear
7:15 PM 58.3 °F 58.3 °F 100% 30.11 in 5.0 mi Calm Calm - N/A   Clear
7:35 PM 57.6 °F 57.6 °F 100% 30.11 in 4.0 mi Calm Calm - N/A   Clear
7:55 PM 57.0 °F 57.0 °F 100% 30.12 in 0.8 mi Calm Calm - N/A   Mist
8:15 PM 56.1 °F 56.1 °F 100% 30.11 in 0.2 mi Calm Calm - N/A Fog Fog
8:35 PM 54.9 °F 54.9 °F 100% 30.11 in 0.5 mi Calm Calm - N/A Fog Fog
8:55 PM 55.4 °F 55.4 °F 100% 30.11 in 1.2 mi Calm Calm - N/A   Scattered Clouds
9:15 PM 54.5 °F 54.5 °F 100% 30.11 in 0.2 mi Calm Calm - N/A Fog Fog
9:35 PM 54.5 °F 54.5 °F 100% 30.10 in 2.5 mi Calm Calm - N/A   Clear
9:55 PM 52.2 °F 52.2 °F 100% 30.11 in 0.5 mi Calm Calm - N/A Fog Fog
10:15 PM 52.3 °F 52.3 °F 100% 30.11 in 0.5 mi Calm Calm - N/A Fog Fog
10:35 PM 53.6 °F 53.6 °F 100% 30.10 in 1.8 mi Calm Calm - N/A   Mist
10:55 PM 52.9 °F 52.9 °F 100% 30.11 in 0.8 mi Calm Calm - N/A   Mist
11:15 PM 52.0 °F 52.0 °F 100% 30.11 in 0.2 mi Calm Calm - N/A Fog Fog
11:35 PM 52.0 °F 52.0 °F 100% 30.10 in 0.5 mi Calm Calm - N/A Fog Fog
11:55 PM 52.0 °F 52.0 °F 100% 30.10 in 0.5 mi Calm Calm - N/A Fog Fog